Weather History for Danville, IL

Change the Weather History Date:

Thursday, March 7, 2013

  Actual Average (KLAF) Record (KLAF)
Temperature  
Mean Temperature 30 °F 37 °F  
Max Temperature 34 °F 46 °F 75 °F (1987)
Min Temperature 27 °F 28 °F 13 °F (1967)
Degree Days  
Heating Degree Days 34 28  
Month to date heating degree days 202  
Since 1 July heating degree days 4536  
Cooling Degree Days 0 0  
Month to date cooling degree days 0  
Year to date cooling degree days 0  
Moisture  
Dew Point 25 °F    
Average Humidity 81    
Maximum Humidity 90    
Minimum Humidity 65    
Precipitation  
Precipitation 0.04 in 0.08 in 0.80 in (2009)
Month to date precipitation 0.58  
Year to date precipitation 4.20  
Sea Level Pressure  
Sea Level Pressure 30.35 in    
Wind  
Wind Speed 6 mph (NW)    
Max Wind Speed 10 mph    
Max Gust Speed -    
Visibility 9 miles    
Events      
T = Trace of Precipitation, MM = Missing Value Source: NWS Daily Summary

Daily Weather History Graph

Daily Weather History Graph

Search for Another Location

Airport:

Trip Planner

Search our weather history database for the weather conditions in past years. The results will help you decide how hot, cold, wet, or windy it might be!

Date:

Astronomy

Mar. 07, 2013 Rise Set
Actual Time 6:14 AM CST 5:48 PM CST
Civil Twilight 5:47 AM CST 6:16 PM CST
Nautical Twilight 5:15 AM CST 6:47 PM CST
Astronomical Twilight 4:44 AM CST 7:19 PM CST
Moon 3:13 AM CST (3/7) 1:36 PM CST (3/7)
Length of Visible Light 12h 28m
Length of Day
11h 34m
Waning Crescent, 20% of the Moon is Illuminated
Mar 7
Waning Crescent
Mar 11
New
Mar 19
First Quarter
Mar 27
Full
Apr 2
Last Quarter

Hourly Weather History & Observations

Time (CST) Temp. Windchill Dew Point Humidity Pressure Visibility Wind Dir Wind Speed Gust Speed Precip Events Conditions
12:15 AM 28.4 °F 20.4 °F 25.7 °F 90% 30.28 in 10.0 mi NW 8.1 mph - N/A   Overcast
12:35 AM 28.4 °F 19.1 °F 25.7 °F 90% 30.29 in 10.0 mi NW 10.4 mph - N/A   Overcast
12:55 AM 28.4 °F 19.7 °F 25.7 °F 90% 30.29 in 10.0 mi NW 9.2 mph - N/A   Overcast
1:15 AM 28.4 °F 19.7 °F 25.5 °F 89% 30.29 in 10.0 mi NW 9.2 mph - N/A   Overcast
1:35 AM 28.2 °F 19.5 °F 25.3 °F 89% 30.29 in 10.0 mi NW 9.2 mph - N/A   Overcast
1:55 AM 28.2 °F 19.5 °F 25.3 °F 89% 30.30 in 10.0 mi NW 9.2 mph - N/A   Overcast
2:15 AM 28.2 °F 18.9 °F 25.3 °F 89% 30.30 in 10.0 mi NW 10.4 mph - N/A   Overcast
2:35 AM 28.2 °F 19.5 °F 25.3 °F 89% 30.30 in 10.0 mi NW 9.2 mph - N/A   Overcast
2:55 AM 28.2 °F 19.5 °F 25.3 °F 89% 30.30 in 10.0 mi NW 9.2 mph - N/A   Overcast
3:15 AM 28.2 °F 20.2 °F 25.3 °F 89% 30.31 in 10.0 mi NW 8.1 mph - N/A   Overcast
3:35 AM 28.2 °F 19.5 °F 25.3 °F 89% 30.31 in 10.0 mi NW 9.2 mph - N/A   Overcast
3:55 AM 28.0 °F 20.8 °F 25.2 °F 89% 30.31 in 10.0 mi NW 6.9 mph - N/A   Overcast
4:15 AM 28.0 °F 20.0 °F 25.2 °F 89% 30.32 in 10.0 mi NW 8.1 mph - N/A   Overcast
4:35 AM 28.0 °F 19.3 °F 25.2 °F 89% 30.32 in 10.0 mi NW 9.2 mph - N/A   Overcast
4:55 AM 27.9 °F 19.1 °F 24.8 °F 88% 30.32 in 10.0 mi NW 9.2 mph - N/A   Overcast
5:15 AM 27.7 °F 18.8 °F 24.8 °F 89% 30.32 in 10.0 mi NW 9.2 mph - N/A   Overcast
5:35 AM 27.5 °F 18.6 °F 24.8 °F 90% 30.32 in 7.0 mi NW 9.2 mph - N/A   Overcast
5:55 AM 27.5 °F 21.1 °F 24.8 °F 90% 30.33 in 7.0 mi NNW 5.8 mph - N/A   Overcast
6:15 AM 27.5 °F 22.2 °F 24.8 °F 90% 30.33 in 7.0 mi NW 4.6 mph - N/A   Overcast
6:35 AM 27.5 °F 22.2 °F 24.8 °F 90% 30.34 in 7.0 mi NW 4.6 mph - N/A   Overcast
6:55 AM 27.9 °F - 24.8 °F 88% 30.34 in 7.0 mi Calm Calm - N/A   Overcast
7:15 AM 28.0 °F 22.8 °F 24.8 °F 88% 30.35 in 7.0 mi NW 4.6 mph - N/A   Overcast
7:35 AM 28.4 °F 23.3 °F 25.3 °F 88% 30.36 in 7.0 mi NW 4.6 mph - N/A   Overcast
7:55 AM 28.4 °F 24.6 °F 25.2 °F 88% 30.36 in 7.0 mi NNW 3.5 mph - N/A   Overcast
8:15 AM 29.1 °F 23.0 °F 25.5 °F 86% 30.36 in 7.0 mi NW 5.8 mph - N/A   Overcast
8:35 AM 29.3 °F 24.3 °F 25.7 °F 86% 30.37 in 7.0 mi WNW 4.6 mph - N/A   Overcast
8:55 AM 29.7 °F 26.1 °F 25.7 °F 85% 30.37 in 7.0 mi WNW 3.5 mph - N/A   Overcast
9:15 AM 29.8 °F 26.3 °F 25.7 °F 85% 30.37 in 7.0 mi West 3.5 mph - N/A   Overcast
9:35 AM 30.2 °F - 26.1 °F 85% 30.37 in 7.0 mi Calm Calm - N/A   Overcast
9:55 AM 30.7 °F - 26.1 °F 83% 30.38 in 7.0 mi Calm Calm - N/A   Overcast
10:15 AM 31.5 °F 28.1 °F 26.8 °F 83% 30.38 in 7.0 mi WNW 3.5 mph - N/A   Overcast
10:35 AM 32.0 °F 26.4 °F 26.6 °F 80% 30.38 in 7.0 mi West 5.8 mph - N/A   Overcast
10:55 AM 31.8 °F 26.2 °F 26.8 °F 82% 30.39 in 7.0 mi West 5.8 mph - 0.01 in   Overcast
11:15 AM 32.0 °F 27.5 °F 26.6 °F 80% 30.38 in 7.0 mi West 4.6 mph - 0.01 in   Overcast
11:35 AM 32.4 °F 29.1 °F 27.0 °F 80% 30.38 in 7.0 mi NW 3.5 mph - 0.03 in   Overcast
11:55 AM 33.1 °F - 26.6 °F 77% 30.36 in 7.0 mi Calm Calm - 0.03 in   Overcast
12:15 PM 33.6 °F - 26.8 °F 76% 30.36 in 7.0 mi Calm Calm - N/A   Unknown
12:35 PM 34.2 °F - 27.1 °F 75% 30.36 in 7.0 mi Calm Calm - N/A   Overcast
12:55 PM 34.0 °F 31.0 °F 26.6 °F 74% 30.35 in 7.0 mi North 3.5 mph - N/A   Overcast
1:15 PM 34.0 °F - 25.9 °F 72% 30.35 in 10.0 mi Calm Calm - N/A   Overcast
1:35 PM 34.3 °F - 25.0 °F 69% 30.35 in 10.0 mi Calm Calm - N/A   Overcast
1:55 PM 34.3 °F - 24.1 °F 66% 30.35 in 10.0 mi Calm Calm - N/A   Overcast
2:15 PM 34.3 °F - 23.9 °F 66% 30.35 in 7.0 mi Calm Calm - N/A   Overcast
2:35 PM 34.5 °F 30.4 °F 25.2 °F 69% 30.35 in 10.0 mi NNE 4.6 mph - N/A   Overcast
2:55 PM 34.2 °F 31.2 °F 24.4 °F 68% 30.35 in 10.0 mi NNE 3.5 mph - N/A   Overcast
3:15 PM 34.7 °F - 24.1 °F 65% 30.36 in 10.0 mi Calm Calm - N/A   Overcast
3:35 PM 34.3 °F 30.2 °F 24.6 °F 68% 30.36 in 10.0 mi North 4.6 mph - N/A   Overcast
3:55 PM 34.2 °F - 24.1 °F 67% 30.36 in 10.0 mi Calm Calm - N/A   Overcast
4:15 PM 34.3 °F - 23.9 °F 66% 30.36 in 10.0 mi Calm Calm - N/A   Overcast
4:35 PM 34.3 °F - 24.3 °F 67% 30.36 in 10.0 mi Calm Calm - N/A   Overcast
4:55 PM 34.0 °F - 24.1 °F 67% 30.36 in 10.0 mi Calm Calm - N/A   Overcast
5:15 PM 33.8 °F 29.6 °F 25.0 °F 70% 30.38 in 10.0 mi NNW 4.6 mph - N/A   Overcast
5:35 PM 33.8 °F 29.6 °F 24.8 °F 70% 30.37 in 10.0 mi North 4.6 mph - N/A   Overcast
5:55 PM 33.3 °F - 25.9 °F 74% 30.36 in 10.0 mi Calm Calm - N/A   Overcast
7:35 PM 32.0 °F - 24.8 °F 75% 30.37 in 10.0 mi Calm Calm - N/A   Scattered Clouds
7:55 PM 32.0 °F - 24.8 °F 75% 30.37 in 10.0 mi Calm Calm - N/A   Scattered Clouds
8:15 PM 31.5 °F - 25.2 °F 78% 30.38 in 10.0 mi Calm Calm - N/A   Mostly Cloudy
8:35 PM 30.2 °F - 24.8 °F 80% 30.38 in 10.0 mi Calm Calm - N/A   Overcast
8:55 PM 31.3 °F - 25.2 °F 78% 30.38 in 10.0 mi Calm Calm - N/A   Overcast
9:15 PM 31.1 °F 26.4 °F 24.8 °F 77% 30.37 in 10.0 mi NE 4.6 mph - N/A   Mostly Cloudy
9:35 PM 30.0 °F - 25.7 °F 84% 30.38 in 10.0 mi Calm Calm - N/A   Scattered Clouds
9:55 PM 28.9 °F 25.2 °F 25.9 °F 88% 30.38 in 10.0 mi NE 3.5 mph - N/A   Clear
10:15 PM 29.7 °F 26.1 °F 24.4 °F 81% 30.38 in 10.0 mi ENE 3.5 mph - N/A   Clear
10:35 PM 29.7 °F - 24.8 °F 82% 30.38 in 10.0 mi Calm Calm - N/A   Clear
10:55 PM 29.1 °F 25.4 °F 24.6 °F 83% 30.38 in 10.0 mi ENE 3.5 mph - N/A   Clear
11:15 PM 28.4 °F 24.6 °F 24.6 °F 86% 30.38 in 10.0 mi ENE 3.5 mph - N/A   Clear
11:35 PM 27.3 °F 23.4 °F 24.6 °F 90% 30.38 in 10.0 mi ENE 3.5 mph - N/A   Clear
11:55 PM 27.1 °F - 23.9 °F 88% 30.38 in 10.0 mi Calm Calm - N/A   Clear